[[{"header":{"parameterUnit":"m.s-1","parameterCategory":1,"la1":30.2991,"la2":30.254,"lo1":-89.0895,"lo2":-89.0444,"dy":0.0017,"dx":0.0017,"nx":28,"ny":28,"refTime":"2024-06-06T21:00:00:Z","depth":0,"parameterNumber":2,"parameterNumberName":"U-component_of_WINDS"},"data":[0,0,0,0,0,0,0,0,0,0,0,0,0,0,0,0,0,0,0,0,0,0,0,0,0,0,0,0,0,0,0,0,0,0,0,0,0,0,0,0,0,0,0,0,0,0,0,0,0,0,0,0,0,0,0,0,0,0,-0.3778,-0.3778,0,-0.3709,-0.3708,-0.3707,-0.3686,-0.3686,-0.3686,-0.3687,-0.3614,-0.3612,-0.361,0,0,0,0,0,0,0,0,0,0,0,0,0,-0.3893,-0.3891,-0.3778,-0.3777,-0.3777,-0.3709,-0.3708,-0.3707,-0.3686,-0.3686,-0.3686,-0.3687,-0.3615,-0.3612,-0.361,0,0,0,0,0,0,0,0,0,0,0,0,0,-0.3835,-0.389,-0.3778,-0.3758,-0.3755,-0.3709,-0.3708,-0.3707,-0.3685,-0.3686,-0.3686,-0.3687,-0.3616,-0.3613,-0.3609,-0.3579,0,0,-0.3599,-0.3598,0,0,0,0,0,0,0,0,-0.3838,-0.3831,-0.3762,-0.3759,-0.3756,-0.3707,-0.3722,-0.3664,-0.3685,-0.3712,-0.3687,-0.3687,-0.3645,-0.3639,-0.3625,-0.3575,-0.3572,-0.3599,-0.3597,-0.3595,-0.3594,0,0,0,0,0,0,0,-0.3842,-0.3834,-0.3751,-0.3761,-0.3757,-0.3752,-0.3744,-0.3711,-0.3676,-0.371,-0.3708,-0.37,-0.3643,-0.3628,-0.3623,-0.3571,-0.3599,-0.3596,-0.3594,-0.3593,-0.3496,-0.3495,0,0,0,0,0,0,-0.385,-0.3837,-0.3753,-0.3749,-0.3799,-0.375,-0.3741,-0.3722,-0.3677,-0.367,-0.37,-0.3699,-0.3633,-0.3627,-0.362,-0.3583,-0.3595,-0.3592,-0.359,-0.3496,-0.3496,-0.3495,0,0,0,0,0,0,-0.3852,-0.3843,-0.3756,-0.3793,-0.3781,-0.3747,-0.3726,-0.372,-0.3705,-0.3669,-0.3663,-0.3691,-0.3634,-0.3625,-0.359,-0.358,-0.3591,-0.3588,-0.3497,-0.3496,-0.3495,-0.3507,0,0,0,0,0,0,-0.3856,-0.3844,-0.3831,-0.3792,-0.3779,-0.3726,-0.3725,-0.3719,-0.37,-0.3698,-0.3659,-0.3653,-0.3633,-0.3595,-0.3587,-0.3575,-0.3585,-0.3498,-0.3497,-0.3496,-0.3507,-0.3507,-0.3506,0,0,0,0,0,-0.386,-0.3836,-0.3831,-0.3821,-0.3763,-0.3726,-0.3718,-0.3697,-0.3699,-0.3686,-0.3664,-0.3654,-0.3583,-0.3592,-0.3582,-0.357,-0.3498,-0.3497,-0.3496,-0.3507,-0.3507,-0.3506,0,0,0,0,0,0,-0.3874,-0.3831,-0.3824,-0.3787,-0.3761,-0.3722,-0.3706,-0.3696,-0.3668,-0.3668,-0.3642,-0.3633,-0.3601,-0.3582,-0.3592,-0.3539,-0.354,-0.3537,-0.3552,-0.3551,-0.3551,-0.3556,-0.3582,0,0,0,0,0,-0.3873,-0.3846,-0.381,-0.3781,-0.3768,-0.374,-0.3722,-0.3709,-0.368,-0.3668,-0.3642,-0.3615,-0.3586,-0.3568,-0.3539,-0.3505,-0.3497,-0.3492,-0.3491,-0.3491,-0.3488,-0.347,-0.3468,-0.3491,-0.3491,-0.3491,0,0,-0.387,-0.3843,-0.3828,-0.3783,-0.3761,-0.3735,-0.373,-0.3701,-0.3682,-0.3663,-0.3629,-0.361,-0.3577,-0.3543,-0.3526,-0.3526,-0.348,-0.3489,-0.3489,-0.3487,-0.3469,-0.3467,-0.3465,-0.349,-0.349,-0.349,0,0,-0.3851,-0.3828,-0.3802,-0.3781,-0.3747,-0.3729,-0.3723,-0.3687,-0.3673,-0.3639,-0.3625,-0.3602,-0.3553,-0.3531,-0.3513,-0.3489,-0.348,-0.3481,-0.3477,-0.346,-0.3458,-0.3457,-0.3449,-0.3447,-0.3479,-0.3479,-0.3479,0,-0.3852,-0.3811,-0.379,-0.3763,-0.3745,-0.3728,-0.3703,-0.3682,-0.3641,-0.3629,-0.363,-0.357,-0.3546,-0.3507,-0.3502,-0.3488,-0.3481,-0.3485,-0.3461,-0.3459,-0.3457,-0.3449,-0.3446,-0.3479,-0.3479,-0.3479,-0.3479,0,-0.3814,-0.3787,-0.377,-0.3732,-0.3712,-0.3685,-0.3661,-0.3643,-0.3632,-0.3614,-0.358,-0.3552,-0.3518,-0.3508,-0.3496,-0.3468,-0.3469,-0.3466,-0.3466,-0.3455,-0.3448,-0.3445,-0.3479,-0.3479,-0.3479,-0.3479,0,0,-0.38,-0.3753,-0.3748,-0.3731,-0.3695,-0.3673,-0.3647,-0.3615,-0.3601,-0.3574,-0.3552,-0.3512,-0.3509,-0.3489,-0.3475,-0.346,-0.3445,-0.3458,-0.3457,-0.3457,-0.3414,-0.3417,-0.3414,-0.3439,-0.3438,-0.3438,-0.3417,0,-0.3778,-0.373,-0.3712,-0.3673,-0.3649,-0.3634,-0.3612,-0.3587,-0.357,-0.3547,-0.3528,-0.3501,-0.3498,-0.3486,-0.3471,-0.345,-0.3436,-0.3451,-0.3418,-0.3418,-0.3427,-0.341,-0.3413,-0.3395,-0.3414,-0.3414,-0.3413,0,-0.3744,-0.3718,-0.3678,-0.3647,-0.3635,-0.3615,-0.3586,-0.3564,-0.3536,-0.3525,-0.3505,-0.3492,-0.3465,-0.3468,-0.3431,-0.3442,-0.3428,-0.3416,-0.3415,-0.341,-0.3414,-0.3406,-0.3388,-0.3386,-0.3408,-0.3409,-0.3409,0,-0.3739,-0.3694,-0.3665,-0.3651,-0.3614,-0.36,-0.3584,-0.3557,-0.354,-0.3515,-0.3504,-0.3475,-0.3459,-0.3438,-0.3418,-0.3422,-0.3384,-0.3385,-0.3374,-0.3375,-0.3366,-0.3367,-0.3346,-0.3357,-0.3357,-0.3357,-0.3357,0,-0.3716,-0.3692,-0.3663,-0.3644,-0.3618,-0.3597,-0.3572,-0.3554,-0.3531,-0.351,-0.3496,-0.3476,-0.3451,-0.3429,-0.3413,-0.3386,-0.3379,-0.3369,-0.3365,-0.337,-0.3372,-0.336,-0.3361,-0.3356,-0.3356,-0.3357,-0.3357,0,-0.3705,-0.3685,-0.3652,-0.362,-0.3611,-0.3593,-0.3566,-0.3548,-0.3532,-0.3505,-0.3498,-0.3471,-0.3445,-0.3423,-0.3387,-0.3377,-0.3349,-0.3344,-0.3358,-0.3356,-0.3347,-0.3348,-0.3318,-0.3313,-0.3327,-0.3327,-0.3327,0,-0.3691,-0.3673,-0.364,-0.3625,-0.3609,-0.3585,-0.3568,-0.3548,-0.3531,-0.35,-0.3487,-0.3459,-0.3436,-0.3394,-0.3371,-0.3345,-0.334,-0.3331,-0.3335,-0.3342,-0.334,-0.3342,-0.334,-0.333,-0.333,-0.333,-0.333,0,-0.367,-0.3661,-0.3637,-0.3611,-0.3591,-0.3569,-0.3547,-0.3536,-0.3512,-0.3494,-0.3466,-0.3449,-0.3414,-0.3386,-0.3358,-0.3342,-0.3332,-0.3329,-0.3326,-0.333,-0.334,-0.3335,-0.3357,-0.333,-0.333,-0.333,-0.333,-0.333,-0.3657,-0.3641,-0.3616,-0.3591,-0.3572,-0.3552,-0.3535,-0.3517,-0.3494,-0.3464,-0.3454,-0.3426,-0.3401,-0.3362,-0.3346,-0.3325,-0.3324,-0.3318,-0.3317,-0.3315,-0.3317,-0.3343,-0.3319,-0.3319,-0.3319,-0.3319,-0.3319,0,-0.3636,-0.3619,-0.3596,-0.3566,-0.3547,-0.3541,-0.3516,-0.3501,-0.3477,-0.3455,-0.3433,-0.3403,-0.3377,-0.3354,-0.3327,-0.3315,-0.331,-0.3308,-0.3309,-0.3306,-0.3318,-0.3325,-0.3313,-0.3313,-0.3313,-0.3313,-0.3313,-0.3313,-0.3622,-0.3594,-0.3583,-0.3547,-0.3531,-0.3504,-0.3491,-0.3473,-0.3455,-0.3423,-0.3402,-0.3387,-0.3365,-0.3337,-0.3314,-0.3308,-0.3299,-0.3299,-0.3292,-0.3304,-0.3305,-0.3305,-0.3311,-0.3297,-0.3297,-0.3281,-0.3281,-0.3281]},{"header":{"parameterUnit":"m.s-1","parameterCategory":1,"la1":30.2991,"la2":30.254,"lo1":-89.0895,"lo2":-89.0444,"dy":0.0017,"dx":0.0017,"nx":28,"ny":28,"refTime":"2024-06-06T21:00:00:Z","depth":0,"parameterNumber":3,"parameterNumberName":"V-component_of_WINDS"},"data":[0,0,0,0,0,0,0,0,0,0,0,0,0,0,0,0,0,0,0,0,0,0,0,0,0,0,0,0,0,0,0,0,0,0,0,0,0,0,0,0,0,0,0,0,0,0,0,0,0,0,0,0,0,0,0,0,0,0,0.1214,0.1214,0,0.1243,0.1244,0.1244,0.1255,0.1255,0.1255,0.1255,0.1286,0.1287,0.1288,0,0,0,0,0,0,0,0,0,0,0,0,0,0.1167,0.1168,0.1214,0.1214,0.1214,0.1243,0.1244,0.1244,0.1255,0.1255,0.1255,0.1255,0.1286,0.1287,0.1288,0,0,0,0,0,0,0,0,0,0,0,0,0,0.1191,0.1168,0.1214,0.1224,0.1225,0.1243,0.1244,0.1244,0.1255,0.1255,0.1255,0.1255,0.1285,0.1287,0.1288,0.1299,0,0,0.1292,0.1293,0,0,0,0,0,0,0,0,0.119,0.1193,0.1222,0.1223,0.1224,0.1245,0.1239,0.1263,0.1255,0.1244,0.1255,0.1255,0.1273,0.1275,0.1281,0.13,0.1302,0.1292,0.1293,0.1294,0.1294,0,0,0,0,0,0,0,0.1188,0.1192,0.1225,0.1222,0.1224,0.1226,0.123,0.1243,0.1259,0.1245,0.1246,0.1249,0.1273,0.1279,0.1282,0.1302,0.1292,0.1293,0.1294,0.1295,0.1331,0.1331,0,0,0,0,0,0,0.1185,0.119,0.1225,0.1226,0.1206,0.1227,0.1231,0.1239,0.1258,0.1261,0.1249,0.1249,0.1277,0.128,0.1283,0.1296,0.1294,0.1295,0.1296,0.1331,0.1331,0.1331,0,0,0,0,0,0,0.1184,0.1188,0.1223,0.1208,0.1213,0.1228,0.1237,0.1239,0.1246,0.1262,0.1264,0.1252,0.1277,0.1281,0.1295,0.1298,0.1295,0.1297,0.1331,0.1331,0.1331,0.1324,0,0,0,0,0,0,0.1182,0.1187,0.1192,0.1208,0.1214,0.1235,0.1237,0.124,0.1248,0.1249,0.1266,0.1268,0.1277,0.1292,0.1296,0.1299,0.1298,0.1331,0.1331,0.1331,0.1324,0.1324,0.1324,0,0,0,0,0,0.1181,0.1189,0.1192,0.1196,0.122,0.1235,0.1238,0.1248,0.1248,0.1253,0.1263,0.1268,0.1297,0.1294,0.1298,0.1302,0.1331,0.1331,0.1331,0.1324,0.1324,0.1324,0,0,0,0,0,0,0.1172,0.1191,0.1195,0.1209,0.122,0.1237,0.1243,0.1248,0.1259,0.126,0.1272,0.1275,0.1288,0.1296,0.1293,0.1313,0.1314,0.1315,0.1307,0.1307,0.1307,0.1305,0.1299,0,0,0,0,0,0.1172,0.1183,0.1199,0.1209,0.1215,0.1228,0.1235,0.1241,0.1253,0.1258,0.127,0.1281,0.1293,0.1301,0.1312,0.1325,0.1329,0.133,0.133,0.1329,0.133,0.1337,0.1338,0.1333,0.1333,0.1333,0,0,0.1172,0.1183,0.1189,0.1208,0.1217,0.1228,0.1232,0.1243,0.1251,0.126,0.1274,0.1282,0.1296,0.1309,0.1315,0.1316,0.1332,0.133,0.133,0.1331,0.1337,0.1338,0.1338,0.1333,0.1333,0.1333,0,0,0.1177,0.1187,0.1196,0.1206,0.122,0.1228,0.123,0.1246,0.1252,0.1265,0.1272,0.1282,0.1302,0.1311,0.1319,0.1326,0.1331,0.1329,0.1329,0.1335,0.1336,0.1336,0.1338,0.1339,0.133,0.133,0.133,0,0.1175,0.1191,0.1201,0.1211,0.1219,0.1227,0.1237,0.1245,0.1263,0.1268,0.1269,0.1293,0.1303,0.1318,0.132,0.1326,0.1328,0.1328,0.1335,0.1335,0.1336,0.1338,0.1339,0.133,0.133,0.133,0.133,0,0.1187,0.1198,0.1204,0.122,0.1228,0.1239,0.125,0.1257,0.1263,0.1271,0.1284,0.1296,0.131,0.1314,0.132,0.133,0.133,0.1332,0.1334,0.1336,0.1338,0.1339,0.1329,0.1329,0.133,0.133,0,0,0.1189,0.1209,0.1211,0.1218,0.1234,0.1242,0.1252,0.1266,0.1271,0.1283,0.1291,0.1307,0.131,0.1318,0.1325,0.133,0.1335,0.1332,0.1333,0.1332,0.1346,0.1343,0.1344,0.1338,0.1338,0.1338,0.1344,0,0.1195,0.1214,0.1222,0.1237,0.1246,0.1254,0.1263,0.1273,0.1281,0.129,0.1299,0.131,0.1313,0.1318,0.1323,0.1333,0.1337,0.1333,0.1346,0.1346,0.1342,0.1345,0.1343,0.1348,0.1345,0.1345,0.1346,0,0.1206,0.1216,0.1231,0.1245,0.125,0.1257,0.127,0.1279,0.129,0.1296,0.1304,0.1311,0.1321,0.1322,0.1336,0.1333,0.1339,0.1344,0.1344,0.1346,0.1346,0.1347,0.135,0.1351,0.1347,0.1347,0.1347,0,0.1204,0.1223,0.1234,0.124,0.1256,0.1261,0.1268,0.128,0.1287,0.1298,0.1302,0.1314,0.1321,0.133,0.1339,0.1338,0.1353,0.1354,0.1357,0.1357,0.136,0.136,0.1364,0.1364,0.1364,0.1364,0.1364,0,0.1211,0.122,0.1233,0.124,0.125,0.126,0.127,0.1277,0.1288,0.1296,0.1303,0.1311,0.1323,0.1332,0.134,0.135,0.1353,0.1358,0.136,0.1357,0.1356,0.1361,0.1361,0.1364,0.1364,0.1364,0.1364,0,0.1211,0.1221,0.1233,0.1248,0.1251,0.1258,0.127,0.1277,0.1285,0.1295,0.1298,0.131,0.1322,0.1332,0.1347,0.1352,0.1362,0.1365,0.1358,0.1359,0.1362,0.1361,0.137,0.1371,0.137,0.137,0.137,0,0.1215,0.1222,0.1236,0.1242,0.1249,0.1259,0.1266,0.1275,0.1282,0.1296,0.1301,0.1312,0.1322,0.1339,0.135,0.1361,0.1364,0.1366,0.1365,0.1362,0.1363,0.1363,0.1363,0.1366,0.1365,0.1365,0.1365,0,0.122,0.1224,0.1233,0.1244,0.1252,0.1262,0.1271,0.1276,0.1287,0.1295,0.1306,0.1313,0.1328,0.1339,0.1351,0.1359,0.1364,0.1365,0.1367,0.1364,0.136,0.1362,0.1358,0.1365,0.1365,0.1365,0.1365,0.1365,0.1221,0.1228,0.1239,0.1249,0.1257,0.1266,0.1272,0.1281,0.129,0.1303,0.1308,0.1319,0.133,0.1347,0.1354,0.1363,0.1364,0.1366,0.1366,0.1367,0.1366,0.1358,0.1365,0.1365,0.1365,0.1365,0.1365,0,0.1226,0.1234,0.1243,0.1256,0.1264,0.1267,0.1278,0.1284,0.1294,0.1304,0.1313,0.1325,0.1336,0.1347,0.1358,0.1363,0.1366,0.1366,0.1365,0.1367,0.1365,0.1362,0.1363,0.1363,0.1363,0.1363,0.1363,0.1363,0.123,0.124,0.1246,0.126,0.1267,0.1278,0.1284,0.1292,0.1299,0.1313,0.1321,0.1328,0.1338,0.135,0.136,0.1363,0.1367,0.1366,0.1369,0.1367,0.1367,0.1367,0.1365,0.1367,0.1367,0.1371,0.1371,0.1371]}]]